Flag for Germany Weather past 2 weeks in Königs Wusterhausen, Brandenburg, Germany

Now
50 °F

Light rain. Passing clouds.


Feels Like: 43 °F
Forecast: 48 / 51 °F
Wind: 23 mph from West

Location: Berlin-Schoenefeld

Current Time: Dec 22, 2014 at 6:03:18 PM

Latest Report: Dec 22, 2014 at 5:20 PM


Visibility: N/A

Pressure: 29.80 "Hg

Humidity: 88%

Dew point: 46 °F

Location of Königs WusterhausenLocation

Historic Weather in Königs Wusterhausen — Graph

°F

Königs Wusterhausen temperature yesterday

Maximum temperature yesterday: 45 °F (at 11:50 PM)
Minimum temperature yesterday: 39 °F (at 12:20 AM)
Average temperature yesterday: 42 °F

Past Weeks' High & Low Weather Summary

 TemperatureHumidityPressure
High54 °F (Dec 19, 1:20 AM)100% (Dec 8, 3:20 AM)30.39 "Hg (Dec 8, 3:20 AM)
Low27 °F (Dec 9, 5:20 AM)67% (Dec 12, 7:20 PM)29.39 "Hg (Dec 12, 7:20 PM)
Average40 °F89%29.88 "Hg
* Reported Dec 7 4:20 PM — Dec 22 4:50 PM, Königs Wusterhausen, Weather by CustomWeather, © 2014

Note: Actual official high and low records may vary slightly from our data, if they occured in-between our weather recording intervals... More about our weather records

Advertising

Königs Wusterhausen weather history for previous 24 hours

 ConditionsComfort  
Time TempWeatherWind HumidityBarometerVisibility
4:50 PM
Dec 22
50 °FLight rain. Passing clouds.24 mph88%29.77 "HgN/A
4:20 PM50 °FLight rain. Passing clouds.26 mph88%29.77 "HgN/A
3:50 PM52 °FPartly sunny.31 mph82%29.74 "HgN/A
3:20 PM50 °FPartly sunny.28 mph88%29.77 "HgN/A
2:50 PM50 °FDrizzle. Broken clouds.29 mph88%29.77 "HgN/A
2:20 PM48 °FDrizzle. Broken clouds.25 mph94%29.77 "HgN/A
1:50 PM50 °FDrizzle. Partly sunny.28 mph88%29.77 "Hg6 mi
1:20 PM48 °FLight rain. Partly sunny.22 mph87%29.77 "HgN/A
12:50 PM50 °FPartly sunny.22 mph82%29.77 "HgN/A
12:20 PM48 °FLight rain. Broken clouds.24 mph87%29.77 "HgN/A
11:50 AM48 °FLight rain. Partly sunny.23 mph87%29.80 "HgN/A
11:20 AM48 °FLight rain. Broken clouds.22 mph87%29.80 "HgN/A
10:50 AM48 °FLight rain. Broken clouds.21 mph87%29.80 "HgN/A
10:20 AM48 °FLight rain. Broken clouds.26 mph87%29.83 "HgN/A
9:50 AM48 °FPartly sunny.26 mph94%29.83 "HgN/A
9:20 AM48 °FLight rain. Partly sunny.26 mph87%29.83 "HgN/A
8:50 AM46 °FLight rain. Broken clouds.23 mph93%29.83 "HgN/A
8:20 AM46 °FDrizzle. Broken clouds.23 mph93%29.83 "Hg4 mi
7:50 AM46 °FLight rain. Partly cloudy.22 mph93%29.83 "HgN/A
7:20 AM46 °FLight rain. Passing clouds.24 mph93%29.83 "HgN/A
6:20 AM46 °FLight rain. Partly cloudy.24 mph93%29.83 "HgN/A
5:50 AM46 °FPassing clouds.24 mph93%29.83 "HgN/A
5:20 AM45 °FPassing clouds.24 mph100%29.83 "HgN/A
4:20 AM46 °FPassing clouds.24 mph87%29.86 "HgN/A
3:50 AM46 °FOvercast.22 mph87%29.86 "HgN/A
3:20 AM46 °FOvercast.22 mph82%29.89 "HgN/A
2:50 AM45 °FPassing clouds.20 mph87%29.89 "HgN/A
2:20 AM45 °FPassing clouds.21 mph87%29.89 "HgN/A
1:50 AM43 °FPassing clouds.22 mph93%29.89 "HgN/A
1:20 AM43 °FPassing clouds.22 mph93%29.92 "HgN/A
12:50 AM43 °FLight rain. Passing clouds.20 mph93%29.95 "HgN/A
12:20 AM45 °FLight rain. Passing clouds.22 mph87%29.95 "HgN/A
11:50 PM
Dec 21
45 °FLight rain. Passing clouds.21 mph87%29.98 "HgN/A
11:20 PM43 °FLight rain. Passing clouds.22 mph93%29.98 "HgN/A
10:20 PM43 °FLight rain. Passing clouds.21 mph87%30.01 "HgN/A
9:50 PM43 °FPassing clouds.18 mph93%30.04 "HgN/A
9:20 PM43 °FLight rain. Passing clouds.18 mph87%30.04 "HgN/A
8:50 PM43 °FPassing clouds.18 mph87%30.07 "HgN/A
8:20 PM43 °FLight rain. Passing clouds.18 mph87%30.07 "HgN/A
7:50 PM43 °FLight rain. Passing clouds.16 mph87%30.09 "HgN/A
7:20 PM41 °FLight rain. Passing clouds.15 mph93%30.09 "HgN/A
6:50 PM43 °FLight rain. Passing clouds.16 mph87%30.09 "HgN/A
6:20 PM43 °FPassing clouds.15 mph81%30.12 "HgN/A
Weather by CustomWeather, © 2014

See weather overviewHow to use our weather pages